Date,TemperatureHighF,TemperatureAvgF,TemperatureLowF,DewpointHighF,DewpointAvgF,DewpointLowF,HumidityHigh,HumidityAvg,HumidityLow,PressureMaxIn,PressureMinIn,WindSpeedMaxMPH,WindSpeedAvgMPH,GustSpeedMaxMPH,PrecipitationSumIn
2013-1-1,65.0,57.7,49.0,-99.9,-99.9,-99.9,0,0,100,30.18,29.87,27,16,31,0.00
2013-1-2,49.0,44.2,42.0,-99.9,-99.9,-99.9,0,0,100,30.29,30.15,27,20,30,0.00
2013-1-3,49.0,45.9,43.0,-99.9,-99.9,-99.9,0,0,100,30.39,30.27,21,18,25,0.00
2013-1-4,50.0,48.6,48.0,-99.9,-99.9,-99.9,0,0,100,30.43,30.33,25,18,28,0.00
2013-1-5,49.0,47.0,45.0,-99.9,-99.9,-99.9,0,0,100,30.35,30.23,25,17,29,0.00
2013-1-6,54.0,48.6,43.0,-99.9,-99.9,-99.9,0,0,100,30.35,30.24,19,15,22,0.00
2013-1-7,55.0,51.2,48.0,-99.9,-99.9,-99.9,0,0,100,30.29,30.04,22,15,26,0.00
2013-1-8,62.0,58.1,53.0,-99.9,-99.9,-99.9,0,0,100,30.03,29.83,23,12,26,0.00
2013-1-9,65.0,60.5,57.0,-99.9,-99.9,-99.9,0,0,100,30.04,29.79,27,12,34,0.00
2013-1-10,62.0,57.9,55.0,-99.9,-99.9,-99.9,0,0,100,30.13,30.00,16,7,20,0.00
2013-1-11,64.0,60.2,56.0,-99.9,-99.9,-99.9,0,0,100,30.05,29.84,12,7,14,0.00
2013-1-12,67.0,64.8,63.0,-99.9,-99.9,-99.9,0,0,100,29.86,29.68,22,14,24,0.00
2013-1-13,67.0,52.0,46.0,-99.9,-99.9,-99.9,0,0,100,30.04,29.74,35,21,38,0.00
2013-1-14,47.0,46.8,46.0,-99.9,-99.9,-99.9,0,0,100,30.11,30.08,15,13,18,0.00
2013-1-15,47.0,42.8,40.0,-99.9,-99.9,-99.9,0,0,100,30.16,30.02,27,20,33,0.00
2013-1-16,51.0,44.7,39.0,-99.9,-99.9,-99.9,0,0,100,30.33,30.17,28,16,32,0.00
2013-1-17,56.0,48.4,40.0,-99.9,-99.9,-99.9,0,0,100,30.45,30.29,12,7,13,0.00
2013-1-18,55.0,52.2,49.0,-99.9,-99.9,-99.9,0,0,100,30.50,30.35,15,9,17,0.00
2013-1-19,65.0,56.3,53.0,-99.9,-99.9,-99.9,0,0,100,30.33,30.19,12,8,14,0.00
2013-1-20,64.0,57.1,55.0,-99.9,-99.9,-99.9,0,0,100,30.25,30.12,10,6,11,0.00
2013-1-21,62.0,57.1,55.0,-99.9,-99.9,-99.9,0,0,100,30.24,30.12,10,5,11,0.00
2013-1-22,60.0,57.3,55.0,-99.9,-99.9,-99.9,0,0,100,30.30,30.18,11,8,13,0.00
2013-1-23,67.0,61.3,57.0,-99.9,-99.9,-99.9,0,0,100,30.34,30.24,11,7,12,0.00
2013-1-24,70.0,64.4,61.0,-99.9,-99.9,-99.9,0,0,100,30.29,30.16,17,10,21,0.00
2013-1-25,69.0,65.6,63.0,-99.9,-99.9,-99.9,0,0,100,30.18,30.07,16,11,19,0.00
2013-1-26,69.0,64.4,61.0,-99.9,-99.9,-99.9,0,0,100,30.17,30.08,14,8,15,0.00
2013-1-27,67.0,64.7,62.0,-99.9,-99.9,-99.9,0,0,100,30.11,30.00,17,11,19,0.00
2013-1-28,68.0,66.1,64.0,-99.9,-99.9,-99.9,0,0,100,30.09,29.95,16,13,19,0.00
2013-1-29,70.0,67.6,65.0,-99.9,-99.9,-99.9,0,0,100,29.93,29.61,27,19,30,0.00
2013-1-30,65.0,60.2,57.0,-99.9,-99.9,-99.9,0,0,100,30.25,29.75,29,22,37,0.00
2013-1-31,62.0,60.7,55.0,-99.9,-99.9,-99.9,0,0,100,30.32,30.24,13,10,19,0.00